Timeline UpdatesTrip UpdatesNews PostsPvt PostsTravel TipsAdmin PostsConv PostsFollowed PostsChat RequestsBlog PostsPNR Posts

Disclaimer
Search
 
 
Thu Oct 2, 2014 11:53:21 ISTHomeTrainsΣChainsAtlasPNRForumGalleryNewsFAQTripsMembersLoginFeedback
No Recent News for this Train
Other Trains in the News **new
Latest...
.
Mon Jul 28, 2014 (03:38PM)
⇐ Return Journey: Train# 59386-Slip

18238-Slip/Chhattisgarh Express Slip

Time-Table HAS CHANGED.
Sep 04 (10:14PM)
Change Departure Station:
Change Arrival Station:
Post a Train Travel TipPost a Train Travel Tip **new
Post a Comment/Question/Picture/VideoPost a Comment/Question/Picture/Video
Pantry/Catering
✕ NO Pantry Car
✕ NO Catering
RSA - Rake Sharing
.
Rake/Coach Composition
Attached to 59385 Panchvalley Fast Passenger at Amla to run upto Chhindwara ; SP1(Itz attached at the end of the train)
Loco
ASR - NZM > TKD WDP4B/4D NZM-AMLA> AJNI WAP7 AMLA-CWA> RTM WDM3A
News    PNR    Forum    Time-Table    Availability    Fare Chart    Map    Arr/Dep History    Trips    Gallery    ΣChains    X/O    Timeline    
Travel Time: 12h 0m    20 halts    Distance: 474 km    Avg Speed: 39 km/hr
Type: Mail/Express
Zone: CR/Central
Departs @ 16:30 (Avg 23m late)
Platform# 2
SMTWTFS
Bina Junction/BINA 
Arrives @ 04:30 +1 night
Platform# 3
SMTWTFS
Chhindwara Junction/CWA 

20 halts. 67 intermediate Stations between Bina Junction and Chhindwara Junction

Show ALL intermediate Stations  Show Old Time-Table

#CodeStation NameX/OArrivesAvgDepartsAvgHaltPFDay#KmSpeedElevZoneAddress
1ASRAmritsar Junction (5)  -16:15+1021-1071.177233mNRAmritsar 143002, Punjab
2JNLJandiala (2)  16:30+2116:32+212m21-1051.980238mNRJandiala, Punjab
3BEASBeas Junction (2)  16:50+2216:52+222m21-1028.061238mNRBeas, Punjab
4KREKartarpur (2)X  17:13+2317:15+232m11-1006.668236mNRKartarpur, Punjab
5JUCJalandhar City Junction (5)X  17:27 17:28+2517:35 17:34+268 6m21-991.929239mNRJalandhar 144001, Punjab
6JRCJalandhar Cantt. Junction (3)X  17:48 17:44+2317:50 17:46+352m21-987.165239mNRNear Rama Mandi, Punjab
7PGWPhagwara Junction (3)  18:05 18:01+3518:07 18:03+352m11-970.845245mNRPhagwara, Punjab
8GRYGoraya (2)XO  18:21 18:16+3318:23 18:18+352m11-960.927240mNRGoraya, Punjab
9PHRPhillaur Junction (3)X  18:46+2218:48+222m11-948.246246mNRPhillaur, Punjab
10LDHLudhiana Junction (7)X  19:05+2219:15+2410m11-935.122246mNRLudhiana 141001, Punjab
11SNLSanehwal (3)X  19:56+519:58+92m21-920.055260mNRLudhiana, Punjab
12DOADoraha (2)  20:06+1320:08+132m21-912.757261mNRDoraha, Punjab
13CHAChawapail (2)X  20:18+1220:20+122m21-903.266267mNRLudhiana, Punjab
14KNNKhanna (3)  20:30+1320:32+132m21-892.354269mNRNH 1, Punjab
15GVGMandi Gobindgarh (2)  20:41+1520:43+152m11-884.249268mNRMandi Gobindgarh, Punjab
16SIRSirhind Junction (3)X  20:55+1520:57+152m21-874.465271mNRSirhind, Punjab
17RPJRajpura Junction (3)X  21:20+1821:22+182m21-849.656272mNRNH-1, Punjab
18UBCAmbala City (3)X  21:44+1621:46+162m11-829.121273mNRNH-1, Haryana
19UMBAmbala Cantt. Junction (7)X  22:08+1422:20+1212m11-821.568278mNRAmbala 133001, Haryana
20RAABarara (2)  22:42+2222:44+222m11-796.771279mNRBarara, Haryana
21JUDWJagadhri Workshop (2)  23:02+2323:04+232m11-775.543280mNRRailway Workshop Road, Haryana
22JUDYamunanagar-Jagadhri (3)  23:11+2323:13+242m21-770.535275mNRYamunanagar, Haryana
23SRESaharanpur Junction (6)X  00:05+700:15+810m--2-740.468276mNRSaharanpur, Uttar Pradesh
24DBDDeoband (2)  00:45+2100:47+212m--2-706.276258mNRSaharanpur, Uttar Pradesh
25MOZMuzaffarnagar (3)  01:06+2301:08+232m--2-682.178247mNRMuzaffarNagar, Uttar Pradesh
26KATKhatauli (2)  01:34 01:25+2101:36 01:27+262m--2-660.077239mNRKhatauli, Uttar Pradesh
27DRLADaurala (1)  01:56 01:41+2601:58 01:43+262m12-642.051232mNRMeerut, Uttar Pradesh
28MUTMeerut Cantt. (2)  02:09 01:56+2902:11 01:58+292m--2-630.929230mNRMeerut, Uttar Pradesh
29MTCMeerut City Junction (6)  02:20 02:07+2902:25 02:12+275m22-626.569229mNRMeerut, Uttar Pradesh
30MDNRModinagar (2)  02:39 02:29+2802:41 02:31+282m--2-607.160221mNRGhaziabad, Uttar Pradesh
31GUHGuldhar (2)  02:55 02:49+2802:57 02:51+272m--2-589.016224mNRGhaziabad, Uttar Pradesh
32GZBGhaziabad Junction (6)  03:28+1003:30+122m32-579.345217mNRGhaziabad, Uttar Pradesh
33SBBSahibabad Junction (5)  03:38 03:39+1703:40 03:41+172m--2-572.633209mNRGhaziabad, Uttar Pradesh
34NZMDelhi Hazrat Nizamuddin (7)X  04:15 04:10+1304:40+1325 30m22-556.660209mNRNew Delhi 110013, Delhi NCT
35BVHBallabgarh (5)X  05:09+1405:11+142m42-527.742203mNRFaridabad, Haryana
36PWLPalwal (8)X  05:41+605:43+102m42-506.585200mNRPalwal, Haryana
37KSVKosi Kalan (3)X  06:13+1506:15+152m22-464.156189mNCRKosi Kalan, Uttar Pradesh
38CHJChata (4)X  06:26+1606:28+162m--2-453.869 NCRChhata, Uttar Pradesh
39MTJMathura Junction (10)X  06:55+1707:00+175m12-422.662179mNCRMathura, Uttar Pradesh
40RKMRaja Ki Mandi (4)XO  07:56 07:48+2607:58 07:50+262m22-372.96170mNCRAgra, Uttar Pradesh
41AGCAgra Cantt. (6)X  08:30+508:40 08:38+910 8m12-368.975174mNCRAgra, Uttar Pradesh
42DHODholpur Junction (3)X  09:20+1409:22+292m32-316.362177mNCRDholpur, Rajasthan
43MRAMorena (3)X  09:48+3509:50+412m12-289.572176mNCRMorena, Madhya Pradesh
44BAOBanmorXO  10:04 10:06+4310:06 10:08+492m--2-270.231189mNCRGwalior, Madhya Pradesh
45GWLGwalior Junction (4)XO  10:45+4310:50+455m12-250.963214mNCRGwalior, Madhya Pradesh
46DBADabra (3)  11:28 11:30+4711:30 11:32+472m--2-208.663 NCRDabra(District-Gwalior), Madhya Pradesh
47SORSonagir (2)O  11:48 11:50+4611:50 11:52+472m--2-189.830211mNCRDatia, Madhya Pradesh
48DAADatia (2)X  12:13 12:15+4012:15 12:17+402m--2-178.328264mNCRDatia, Madhya Pradesh
49JHSJhansi Junction (7)  13:10+1513:20+2310m--2-153.267259mNCRJhansi, Uttar Pradesh
50BABBabina (3)X  13:43+3013:45+302m12-127.752285mNCRBabina, Uttar Pradesh
51BZYBasai (3)X  13:59+2814:01+282m12-115.659287mNCR07522289600(Gate ManMob. - 9452701575), Madhya Pradesh
52TBTTalbahat (4)X  14:15 14:14+3114:17 14:16+352m22-102.8100314mNCRKhaniyadhana Station Rd, Madhya Pradesh
53LARLalitpur (3)X  14:46 14:40+4314:48 14:42+432m12-62.991373mNCRLalitpur, Uttar Pradesh
54JLNJakhalaun (3) new halt!!XO  14:53+4614:55+482m--2-46.246394mNCRLalitpur(05176-272220), Uttar Pradesh
55DUADhaura (3)XO  15:08 15:10+5015:10 15:12+512m--2-34.628407mNCRDhaura Tanda, Madhya Pradesh
56BINABina Junction (5)»X  16:25+2316:30+235m220.069414mWCRJn Pt - KATNI/GUNA/ BPL/JHS, Madhya Pradesh
57MABAMandi Bamora (3)XO  16:45+2816:47+282m2217.278413mWCRState Highway 14, Madhya Pradesh
58BAQGanj Basoda (4)  17:09+2817:11+292m2245.884 WCRVidisha, Madhya Pradesh
59BHSVidisha (3)X  17:39+3817:41+402m2285.154 WCRVidisha, Madhya Pradesh
60BPLBhopal Junction (6)X  18:40+3518:45+365m12138.638497mWCRBhopal, Madhya Pradesh
61HBJBhopal HabibGanj (5)  18:55+4118:57+432m--2144.843496mWCRHabibGanj, Madhya Pradesh
62HBDHoshangabad (2)XO  20:30+2920:32+302m--2212.233308mWCRHoshangabad, Madhya Pradesh
63ETItarsi Junction (7)X  21:10 21:05+2121:15+255 10m--2230.368329mWCRItarsi 461111, Madhya Pradesh
64GDYAGhoradongri (3)X  22:17+3022:19+302m--2300.749 CRBetul, Madhya Pradesh
65BZUBetul (3)  23:03+3423:05+352m--2336.646644mCRBetul, Madhya Pradesh
66AMLAAmla Junction (5)23:35+2801:10+195m--2359.539733mCRAmla Distt. Betul, Madhya Pradesh
67JMVJambara (1)  01:31-01:33-2m13373.250706mCRAmla, Madhya Pradesh
68BCRDBarchi Road (1)O  01:41-01:43-2m13379.865713mCRState Highway 26, Madhya Pradesh
69BXYBordhal (1)O  01:49-01:51-2m13386.346710mCRAmla, Madhya Pradesh
70NVGNavegaon (1)  02:12-02:14-2m13402.256794mCRNayagaon, Madhya Pradesh
71HRGHirdagarh (2)O  02:30-02:32-2m--3417.147721mCRDongar Parasia, Madhya Pradesh
72JNOJunnor Deo (2)O  02:45-02:47-2m--3427.236762mCRDongar Parasia, Madhya Pradesh
73IKRIklehra (1)  03:08-03:10-2m13439.742771mCRDongar Parasia, Madhya Pradesh
74PUXParasia (2)O  03:19-03:21-2m--3446.0150775mCRDongar Parasia, Madhya Pradesh
75KUXKhirsadoh Junction (2)  03:24-03:26-2m--3453.521769mCRChhindwara, Madhya Pradesh
76GNWGangiwara (1)  03:48-03:50-2m13461.120714mCRChhindwara, Madhya Pradesh
77CWAChhindwara Junction (3)•  04:30--33474.4-675mSECRNH 69A Seoni Road, Madhya Pradesh
Scroll to Top
Scroll to Bottom